Location: Unspecified
(49.9820°N, 20.4363°E)
Time: 09:36:08
(UTC+02:00)

ISS - Pass Details

Date: 16 July 2018
Orbit: 402 x 408 km, 51.6° (Epoch: 23 July)

Event Time Altitude Azimuth Distance (km) Brightness Sun altitude
Exits shadow 02:31:40 - 275° (W) 1,741 -0.8 -14.8°
Reaches altitude 10° 02:32:20 10° 276° (W) 1,470 -1.2 -14.7°
Maximum altitude 02:35:36 63° 358° (N) 462 -3.4 -14.5°
Drops below altitude 10° 02:38:54 10° 81° (E) 1,474 -0.5 -14.2°
Sets 02:41:00 0° 85° (E) 2,335 0.5 -14.1°
